Find Starlink 33594

NORAD ID: 62770 Int'l Des: 2025-015 Owner: SPXS Country: US Constellation: starlink operational
LEOCIRCULAR

現在のビュー

3D地球を読み込み中...

About Starlink 33594

Starlink 33594 (NORAD 62770) is a starlink constellation satellite (v2 mini) launched Jan 21, 2025 by SPXS of US. It operates in LEO, CIRCULAR orbit with a mass of 575.00 kg.

次回通過

Passes for default location (London). Set your location on the main map for personalized predictions.

高度履歴

Loading altitude history...

軌道要素

1 62770U 25015N 26264.94384610 .00004188 00000-0 14662-3 0 9993
2 62770 53.1587 129.0952 0001357 85.1028 275.0129 15.31704135 94550
Epoch: Sep 21, 2026 • Age: 26 hours

現在のステータス

高度 475.7 km
遠地点 / 近地点 N/A
速度 7.63 km/s
衛星直下点 50.29°N, 124.07°W
打ち上げ日 Jan 21, 2025
運用期間 1.6 years
タイプ internet

技術仕様

分類 Payload
質量 575.00 kg
乾燥質量 530.00 kg
長さ 0.30 m
スパン 29.00 m
形状 ? Box + pan
製造者 SPXS
バスタイプ Starlink V2MO
フェーズステータス In Orbit
所有者/国 SPXS/US

Most Searched